Guthrie, OK

8:54 AM CDT on April 24, 2018 (GMT -0500)
Guthrie Municipal

Weather History for KGOK - May, 2013

Change the Weather History Date:

Sunday, May 19, 2013

  Actual Average Record
Temperature  
Mean Temperature 76 °F -  
Max Temperature 87 °F 82 °F 98 °F (1956)
Min Temperature 66 °F 57 °F 44 °F (1968)
Cooling Degree Days 12    
Growing Degree Days 26 (Base 50)    
Moisture  
Dew Point 65 °F    
Average Humidity 72    
Maximum Humidity 83    
Minimum Humidity 55    
Precipitation  
Precipitation 0.75 in - - ()
Sea Level Pressure  
Sea Level Pressure 29.63 in    
Wind  
Wind Speed 12 mph (SE)    
Max Wind Speed 22 mph    
Max Gust Speed 37 mph    
Visibility 7 miles    
Events Rain , Thunderstorm    
Averages and records for this station are not official NWS values.
T = Trace of Precipitation, MM = Missing Value Source: NWS Daily Summary

Daily Weather History Graph

Daily Weather History Graph

Search for Another Location

Airport or City:

Astronomy

May. 19, 2013 Rise Set
Actual Time 6:21 AM CDT 8:31 PM CDT
Civil Twilight 5:52 AM CDT 9:00 PM CDT
Nautical Twilight 5:17 AM CDT 9:35 PM CDT
Astronomical Twilight 4:39 AM CDT 10:14 PM CDT
Moon 2:48 PM CDT (5/19) 2:33 AM CDT (5/19)
Length of Visible Light 15h 08m
Length of Day
14h 10m
Waxing Gibbous, 65% of the Moon is Illuminated
May 19
Waxing Gibbous
May 24
Full
May 31
Last Quarter
Jun 8
New
Jun 16
First Quarter

Hourly Weather History & Observations

Time (CDT) Temp. Heat Index Dew Point Humidity Pressure Visibility Wind Dir Wind Speed Gust Speed Precip Events Conditions
12:28 AM 69.8 °F - 59.0 °F 68% 29.75 in 9.0 mi East 10.4 mph 20.7 mph 0.03 in Rain , Thunderstorm Light Rain
12:53 AM 69.1 °F - 60.1 °F 73% 29.69 in 10.0 mi East 11.5 mph - 0.03 in Rain , Thunderstorm Light Rain
1:08 AM 68.0 °F - 60.8 °F 78% 29.70 in 10.0 mi ESE 10.4 mph - 0.00 in   Partly Cloudy
1:53 AM 66.9 °F - 60.1 °F 79% 29.68 in 10.0 mi SSE 15.0 mph 19.6 mph 0.00 in   Partly Cloudy
2:53 AM 68.0 °F - 60.1 °F 76% 29.65 in 10.0 mi SSE 9.2 mph - N/A   Partly Cloudy
3:53 AM 69.1 °F - 60.1 °F 73% 29.70 in 10.0 mi ENE 6.9 mph - N/A   Overcast
4:32 AM 68.0 °F - 60.8 °F 78% 29.75 in 10.0 mi North 8.1 mph 16.1 mph N/A   Overcast
4:53 AM 66.9 °F - 59.0 °F 76% 29.68 in 10.0 mi East 11.5 mph - N/A   Overcast
5:02 AM 66.2 °F - 59.0 °F 78% 29.71 in 10.0 mi East 8.1 mph - N/A   Overcast
5:53 AM 66.9 °F - 61.0 °F 81% 29.66 in 9.0 mi East 9.2 mph - N/A   Scattered Clouds
7:53 AM 72.0 °F - 66.0 °F 81% 29.66 in 5.0 mi ESE 6.9 mph - N/A   Haze
8:53 AM 75.0 °F - 66.9 °F 76% 29.67 in 7.0 mi SSE 10.4 mph 18.4 mph N/A   Scattered Clouds
9:53 AM 79.0 °F - 66.9 °F 66% 29.65 in 7.0 mi South 16.1 mph 25.3 mph N/A   Partly Cloudy
10:53 AM 81.0 °F 83.8 °F 68.0 °F 65% 29.64 in 6.0 mi South 20.7 mph 29.9 mph N/A   Haze
11:53 AM 84.0 °F 87.8 °F 69.1 °F 61% 29.63 in 7.0 mi South 16.1 mph 27.6 mph N/A   Clear
12:53 PM 84.0 °F 87.8 °F 69.1 °F 61% 29.61 in 7.0 mi South 21.9 mph 28.8 mph N/A   Scattered Clouds
2:53 PM 87.1 °F 91.3 °F 69.1 °F 55% 29.58 in 7.0 mi South 18.4 mph 28.8 mph N/A   Partly Cloudy
3:45 PM 82.4 °F 85.4 °F 68.0 °F 62% 29.59 in 6.0 mi South 15.0 mph 21.9 mph N/A Thunderstorm Haze
3:53 PM 82.0 °F 85.5 °F 69.1 °F 65% 29.58 in 5.0 mi South 10.4 mph 20.7 mph 0.00 in Rain , Thunderstorm Light Thunderstorms and Rain
4:00 PM 78.8 °F - 71.6 °F 78% 29.61 in 1.8 mi SSW 9.2 mph - 0.07 in Rain , Thunderstorm Thunderstorms and Rain
4:16 PM 71.6 °F - 66.2 °F 83% 29.65 in 0.5 mi SSW 15.0 mph 36.8 mph 0.37 in Rain , Thunderstorm Heavy Thunderstorms and Rain
4:36 PM 69.8 °F - 62.6 °F 78% 29.58 in 2.5 mi ESE 20.7 mph - 0.72 in Rain , Thunderstorm Light Thunderstorms and Rain
4:43 PM 73.4 °F - 64.4 °F 73% 29.59 in 7.0 mi SE 16.1 mph 25.3 mph 0.72 in Thunderstorm Thunderstorm
4:53 PM 75.0 °F - 66.0 °F 73% 29.55 in 6.0 mi ESE 16.1 mph 27.6 mph 0.72 in Thunderstorm Unknown
5:29 PM 77.0 °F - 69.8 °F 78% 29.56 in 6.0 mi SE 10.4 mph - N/A   Haze
5:53 PM 79.0 °F - 69.1 °F 72% 29.54 in 6.0 mi SE 13.8 mph - N/A   Haze
6:53 PM 80.1 °F 82.9 °F 69.1 °F 69% 29.54 in 6.0 mi SSE 18.4 mph 27.6 mph N/A   Haze
7:53 PM 75.0 °F - 61.0 °F 62% 29.55 in 9.0 mi SSE 18.4 mph 26.5 mph N/A   Clear
8:53 PM 73.0 °F - 63.0 °F 71% 29.58 in 8.0 mi SE 11.5 mph - N/A   Clear
9:53 PM 73.9 °F - 66.9 °F 79% 29.59 in 6.0 mi SSE 10.4 mph - N/A   Haze
11:53 PM 78.1 °F - 69.1 °F 74% 29.61 in 5.0 mi South 12.7 mph - N/A   Haze